This demonstration page uses our WeatherBlox Daily Observations layout. Learn more.

Left ArrowRight Arrow

40.92945, -100.16068

Hourly Observations for June 27, 2022

Temp ( °F °C ) Dew Point ( °F °C ) Humidity (%) Winds ( mph kmh ) Pressure ( in mb ) Visibility ( mi km ) Precip ( " mm )
12:15 am 00:15 Clear 57 13.9 49 9.3 74 74 WNW 3 6 30.36 1028 10 16 0.00 0.00
12:35 am 00:35 Clear 55 12.8 48 8.9 77 77 Calm 30.36 1028 10 16 0.00 0.00
12:55 am 00:55 Mostly Cloudy 57 13.8 47 8.5 71 71 NE 5 7 30.35 1028 10 16 0.00 0.00
1:15 am 01:15 Mostly Cloudy 57 14.1 49 9.6 75 75 NE 5 7 30.33 1027 10 16 0.00 0.00
1:35 am 01:35 Mostly Cloudy 57 14.1 50 9.9 76 76 ESE 3 6 30.34 1028 10 16 0.00 0.00
1:55 am 01:55 Mostly Cloudy 60 15.5 49 9.6 68 68 SSE 5 7 30.32 1027 10 16 0.00 0.00
2:15 am 02:15 Mostly Cloudy 60 15.4 48 9.1 66 66 Calm 30.32 1027 10 16 0.00 0.00
2:35 am 02:35 Mostly Cloudy 59 14.8 50 9.9 73 73 Calm 30.32 1027 10 16 0.00 0.00
2:55 am 02:55 Partly Cloudy 59 14.9 50 9.9 72 72 Calm 30.32 1027 10 16 0.00 0.00
3:15 am 03:15 Partly Cloudy 60 15.5 49 9.4 67 67 Calm 30.31 1026 10 16 0.00 0.00
3:35 am 03:35 Clear 59 15 49 9.6 70 70 Calm 30.32 1027 10 16 0.00 0.00
3:55 am 03:55 Clear 56 13.6 49 9.6 77 77 SSE 3 6 30.34 1027 10 16 0.00 0.00
4:15 am 04:15 Clear 56 13.4 49 9.2 76 76 Calm 30.34 1027 10 16 0.00 0.00
4:35 am 04:35 Mostly Cloudy 55 12.8 49 9.6 81 81 Calm 30.35 1028 10 16 0.00 0.00
4:55 am 04:55 Partly Cloudy 55 12.6 50 10 84 84 Calm 30.35 1028 10 16 0.00 0.00
5:15 am 05:15 Partly Cloudy 53 11.6 48 9.1 85 85 Calm 30.36 1028 10 16 0.00 0.00
5:35 am 05:35 Mostly Cloudy 54 12 49 9.6 85 85 Calm 30.35 1028 10 16 0.00 0.00
5:55 am 05:55 Cloudy 55 12.6 50 9.9 84 84 Calm 30.35 1028 10 16 0.00 0.00
6:15 am 06:15 Mostly Cloudy 56 13.2 50 10 81 81 Calm 30.34 1027 10 16 0.00 0.00
6:35 am 06:35 Mostly Cloudy 56 13.6 51 10.6 82 82 Calm 30.34 1027 10 16 0.00 0.00
6:55 am 06:55 Mostly Cloudy 58 14.5 52 11.3 81 81 Calm 30.33 1027 10 16 0.00 0.00
7:15 am 07:15 Mostly Cloudy 59 15 52 11.3 79 79 Calm 30.33 1027 10 16 0.00 0.00
7:35 am 07:35 Mostly Cloudy 60 15.8 51 10.8 72 72 Calm 30.32 1027 10 16 0.00 0.00
7:55 am 07:55 Cloudy 62 16.5 50 9.8 65 65 Calm 30.32 1027 10 16 0.00 0.00
8:15 am 08:15 Cloudy 62 16.5 51 10.6 68 68 Calm 30.33 1027 10 16 0.00 0.00
8:35 am 08:35 Partly Cloudy 62 16.5 52 11 70 70 Calm 30.32 1027 10 16 0.00 0.00
8:55 am 08:55 Partly Cloudy 66 18.7 48 8.8 53 53 SE 6 9 30.31 1026 10 16 0.00 0.00
9:15 am 09:15 Mostly Cloudy 65 18.4 48 9.1 55 55 SE 6 9 30.31 1027 10 16 0.00 0.00
9:35 am 09:35 Partly Cloudy 68 20.1 48 8.7 48 48 SSE 5 7 30.30 1026 10 16 0.00 0.00
9:55 am 09:55 Sunny 68 19.9 49 9.3 51 51 SE 5 7 30.29 1026 10 16 0.00 0.00
10:15 am 10:15 Sunny 72 22.1 49 9.4 44 44 S 6 9 30.26 1025 10 16 0.00 0.00
10:35 am 10:35 Sunny 73 22.5 49 9.6 44 44 SSE 5 7 30.26 1025 10 16 0.00 0.00
10:55 am 10:55 Sunny 74 23.5 50 9.9 42 42 SE 7 11 30.25 1024 10 16 0.00 0.00
11:15 am 11:15 Sunny 76 24.7 46 7.7 34 34 S 14 22 30.23 1024 10 16 0.00 0.00
11:35 am 11:35 Partly Cloudy 77 24.9 46 7.9 34 34 S 13 20 30.23 1024 10 16 0.00 0.00
11:55 am 11:55 Cloudy 77 25.2 45 7.3 32 32 S 17 28 30.22 1023 10 16 0.00 0.00
12:15 pm 12:15 Cloudy 76 24.6 45 7.2 33 33 S 13 20 30.22 1023 10 16 0.00 0.00
12:35 pm 12:35 Cloudy 78 25.8 46 7.7 32 32 S 16 26 30.20 1023 10 16 0.00 0.00
12:55 pm 12:55 Cloudy 78 25.8 46 7.9 32 32 SSE 13 20 30.20 1023 10 16 0.00 0.00
1:15 pm 13:15 Partly Cloudy 79 26.2 48 9 34 34 SSE 16 26 30.19 1022 10 16 0.00 0.00
1:35 pm 13:35 Sunny 81 27 49 9.4 33 33 S 15 24 30.17 1022 10 16 0.00 0.00
1:55 pm 13:55 Partly Cloudy 80 26.9 46 7.8 30 30 SSE 12 19 30.16 1021 10 16 0.00 0.00
2:15 pm 14:15 Partly Cloudy 81 27.3 47 8.2 30 30 SSE 13 20 30.15 1021 10 16 0.00 0.00
2:35 pm 14:35 Partly Cloudy 82 27.9 45 7.2 27 27 S 12 19 30.13 1020 10 16 0.00 0.00
2:55 pm 14:55 Mostly Cloudy 81 27.2 46 7.6 29 29 S 13 20 30.13 1020 10 16 0.00 0.00
3:15 pm 15:15 Partly Cloudy 83 28.4 46 7.7 27 27 S 16 26 30.11 1020 10 16 0.00 0.00
3:35 pm 15:35 Sunny 83 28.5 46 7.5 27 27 S 16 26 30.10 1019 10 16 0.00 0.00
3:55 pm 15:55 Sunny 83 28.3 44 6.8 26 26 SSW 17 28 30.09 1019 10 16 0.00 0.00
4:15 pm 16:15 Sunny 84 28.8 45 7 25 25 S 17 28 30.09 1019 10 16 0.00 0.00
4:35 pm 16:35 Sunny 84 28.9 45 7.1 25 25 S 18 30 30.08 1019 10 16 0.00 0.00
4:55 pm 16:55 Sunny 84 28.8 44 6.4 24 24 S 16 26 30.07 1018 10 16 0.00 0.00
5:15 pm 17:15 Sunny 84 28.9 43 6.2 24 24 S 18 30 30.06 1018 10 16 0.00 0.00
5:35 pm 17:35 Sunny 84 29.1 42 5.6 23 23 S 16 26 30.05 1017 10 16 0.00 0.00
5:55 pm 17:55 Sunny 84 28.7 42 5.8 23 23 SSW 17 28 30.05 1018 10 16 0.00 0.00
6:15 pm 18:15 Sunny 83 28.2 42 5.7 24 24 SSW 16 26 30.05 1018 10 16 0.00 0.00
6:35 pm 18:35 Sunny 82 27.7 43 6.3 26 26 SSW 15 24 30.06 1018 10 16 0.00 0.00
6:55 pm 18:55 Sunny 81 27.4 44 6.4 26 26 SSW 16 26 30.06 1018 10 16 0.00 0.00
7:15 pm 19:15 Sunny 80 26.8 43 6.3 27 27 SSW 13 20 30.06 1018 10 16 0.00 0.00
7:35 pm 19:35 Sunny 79 26.3 43 6 27 27 S 13 20 30.07 1018 10 16 0.00 0.00
7:55 pm 19:55 Sunny 78 25.5 44 6.9 31 31 SSW 12 19 30.08 1019 10 16 0.00 0.00
8:15 pm 20:15 Sunny 76 24.6 44 6.8 32 32 SSW 13 20 30.09 1019 10 16 0.00 0.00
8:35 pm 20:35 Sunny 74 23.5 45 7.3 35 35 SSW 12 19 30.10 1019 10 16 0.00 0.00
8:55 pm 20:55 Sunny 73 22.5 46 7.5 38 38 SSW 13 20 30.12 1020 10 16 0.00 0.00
9:15 pm 21:15 Clear 71 21.7 46 8 41 41 SSW 13 20 30.12 1020 10 16 0.00 0.00
9:35 pm 21:35 Clear 69 20.7 46 7.6 43 43 S 13 20 30.13 1020 10 16 0.00 0.00
9:55 pm 21:55 Clear 69 20.3 46 7.5 44 44 S 14 22 30.13 1020 10 16 0.00 0.00
10:15 pm 22:15 Clear 67 19.6 46 7.6 46 46 S 12 19 30.14 1021 10 16 0.00 0.00
10:35 pm 22:35 Clear 67 19.3 46 7.8 47 47 S 15 24 30.15 1021 10 16 0.00 0.00
10:55 pm 22:55 Clear 66 18.8 46 8 50 50 SSW 15 24 30.17 1022 10 16 0.00 0.00
11:15 pm 23:15 Clear 64 18 47 8.1 53 53 SSW 9 15 30.18 1022 10 16 0.00 0.00
11:35 pm 23:35 Clear 64 17.6 47 8.2 54 54 SSW 9 15 30.18 1022 10 16 0.00 0.00
11:55 pm 23:55 Clear 64 17.5 47 8.4 55 55 SW 8 13 30.19 1022 10 16 0.00 0.00

Powered by AerisWeather